Location: Igri�s
(42.2144°N, 0.4320°W)
Time: 09:01:19
(UTC+00:00)

Okean 1-7 - Pass Details

Date: 13 August 2020
Orbit: 590 x 619 km, 82.5° (Epoch: 19 September)

Event Time Altitude Azimuth Distance (km) Brightness Sun altitude
Rises 22:06:46 0° 342° (NNW) 2,864 7.7 -27.1°
Reaches altitude 10° 22:09:09 10° 333° (NNW) 1,950 6.6 -27.4°
Enters shadow 22:12:54 33° 273° (W) 1,009 4.3 -27.7°
